Location: Pedholt
(56.0260°N, 10.2097°E)
Time: 01:58:45
(UTC+00:00)

Transit 2A Rocket - Pass Details

Date: 01 August 2021
Orbit: 586 x 917 km, 66.7° (Epoch: 27 September)

Event Time Altitude Azimuth Distance (km) Brightness Sun altitude
Rises 12:11:30 0° 156° (SSE) 2,872 8.4 50.9°
Reaches altitude 10° 12:15:11 10° 124° (SE) 2,031 7.5 50.7°
Maximum altitude 12:16:45 12° 104° (ESE) 1,954 7.2 50.6°
Drops below altitude 10° 12:18:20 10° 84° (E) 2,095 7.2 50.6°
Sets 12:22:19 0° 53° (NE) 3,104 7.8 50.4°
